Terug naar catalogus

NOAA 16 DEB

ActiefPO
NORAD 41277·DEBRIS·🇺🇸 United States

Gelanceerd Sep 21, 2000 vanaf Vandenberg Space Force Base

Loading…

Volgende Passages (komende 24 uur)

TLE

VersSource: Space-Track

Epoch: Sep 12, 2026, 09:37 UTC

1 41277U 00055GD  26255.40130823  .00003738  00000-0  89434-3 0  9994
2 41277  98.9664 111.5251 0028207 221.7112 138.1932 14.53998677559157

Volg NOAA 16 DEB in realtime met AllMySat

Download on the App Store